DW2715 Weather Reports


Display with metric or nautical units.
time (UTC)temp
F
wind
direction
speed
MPH
gust
MPH
rain 1hr
in
rain 24hr
in
rain mn
in
humidity
%
barometer
mb
20260906164923 86 113 0.0 4.0 0.00 0.00 0.00 49 1021.2
20260906164422 87 137 0.0 4.0 0.00 0.00 0.00 48 1021.2
20260906162921 87 116 0.0 3.0 0.00 0.00 0.00 46 1021.2
20260906161921 87 135 0.0 1.0 0.00 0.00 0.00 46 1021.2
20260906161421 87 117 0.0 0.0 0.00 0.00 0.00 45 1021.2
20260906160921 87 109 0.0 0.0 0.00 0.00 0.00 44 1021.2
20260906160422 88 109 0.0 0.0 0.00 0.00 0.00 44 1021.2
20260906155919 88 144 0.0 0.0 0.00 0.00 0.00 43 1021.2
20260906154915 89 81 0.0 0.0 0.00 0.00 0.00 42 1021.2
20260906154417 88 73 0.0 0.0 0.00 0.00 0.00 43 1021.2
20260906153908 88 86 0.0 0.0 0.00 0.00 0.00 43 1021.2
20260906153409 88 123 0.0 0.0 0.00 0.00 0.00 43 1021.2
20260906152909 87 115 0.0 0.0 0.00 0.00 0.00 42 1021.3
20260906152409 88 130 0.0 0.0 0.00 0.00 0.00 42 1021.2
20260906151909 88 142 0.0 0.0 0.00 0.00 0.00 43 1021.2
20260906150408 87 68 0.0 0.0 0.00 0.00 0.00 42 1021.3
20260906145905 87 106 0.0 0.0 0.00 0.00 0.00 41 1021.3
20260906145407 88 98 0.0 0.0 0.00 0.00 0.00 41 1021.3
20260906144905 88 139 0.0 2.0 0.00 0.00 0.00 43 1021.3
20260906144404 87 80 0.0 4.0 0.00 0.00 0.00 42 1021.3
20260906143903 87 166 1.0 5.0 0.00 0.00 0.00 43 1021.4
20260906143402 87 113 1.0 9.0 0.00 0.00 0.00 42 1021.4
20260906142903 88 99 1.0 11.0 0.00 0.00 0.00 42 1021.4
20260906142402 89 74 1.0 11.0 0.00 0.00 0.00 42 1021.4
20260906141903 89 175 1.0 10.0 0.00 0.00 0.00 44 1021.4
20260906141403 89 136 1.0 10.0 0.00 0.00 0.00 44 1021.4
20260906140902 89 170 0.0 9.0 0.00 0.00 0.00 45 1021.4
20260906135903 89 199 1.0 9.0 0.00 0.00 0.00 45 1021.5
20260906135403 89 103 1.0 9.0 0.00 0.00 0.00 45 1021.5
20260906134902 89 139 0.0 9.0 0.00 0.00 0.00 45 1021.6
20260906134402 89 118 0.0 4.0 0.00 0.00 0.00 44 1021.6
20260906133902 89 133 0.0 4.0 0.00 0.00 0.00 44 1021.6
20260906133404 89 93 0.0 6.0 0.00 0.00 0.00 43 1021.7
20260906132904 89 85 1.0 8.0 0.00 0.00 0.00 45 1021.7
20260906131907 89 136 0.0 7.0 0.00 0.00 0.00 45 1021.7
20260906131402 89 118 0.0 7.0 0.00 0.00 0.00 45 1021.8
20260906130402 89 130 1.0 12.0 0.00 0.00 0.00 47 1021.8
20260906125902 88 136 2.0 12.0 0.00 0.00 0.00 47 1021.8
20260906125403 89 99 2.0 9.0 0.00 0.00 0.00 45 1021.8
20260906124403 88 163 1.0 10.0 0.00 0.00 0.00 47 1021.8
20260906123905 88 177 0.0 10.0 0.00 0.00 0.00 47 1021.9
20260906122902 88 49 1.0 8.0 0.00 0.00 0.00 46 1021.9
20260906121902 87 138 1.0 9.0 0.00 0.00 0.00 45 1021.9
20260906121405 87 148 1.0 9.0 0.00 0.00 0.00 47 1021.9
20260906120902 87 110 1.0 9.0 0.00 0.00 0.00 47 1021.9
20260906120406 87 197 1.0 9.0 0.00 0.00 0.00 46 1021.9
20260906115402 87 205 1.0 8.0 0.00 0.00 0.00 45 1021.9
20260906114903 87 117 1.0 8.0 0.00 0.00 0.00 47 1021.9
20260906114403 86 208 1.0 8.0 0.00 0.00 0.00 48 1021.9
20260906113902 86 166 0.0 8.0 0.00 0.00 0.00 47 1021.9
20260906113402 85 215 1.0 8.0 0.00 0.00 0.00 47 1022.0
20260906111403 85 109 1.0 8.0 0.00 0.00 0.00 47 1021.9
20260906110902 85 83 1.0 6.0 0.00 0.00 0.00 46 1022.0
20260906110403 86 111 0.0 6.0 0.00 0.00 0.00 47 1022.0
20260906105903 86 88 0.0 0.0 0.00 0.00 0.00 46 1022.1
20260906105403 86 185 0.0 1.0 0.00 0.00 0.00 48 1022.0
20260906104403 85 64 0.0 6.0 0.00 0.00 0.00 47 1022.1
20260906103902 85 139 0.0 6.0 0.00 0.00 0.00 49 1022.1
20260906103403 85 79 1.0 7.0 0.00 0.00 0.00 49 1022.1
20260906102902 85 130 2.0 7.0 0.00 0.00 0.00 49 1022.2
20260906102402 85 88 1.0 8.0 0.00 0.00 0.00 49 1022.2
20260906101903 84 138 1.0 8.0 0.00 0.00 0.00 49 1022.2
20260906101402 84 86 0.0 4.0 0.00 0.00 0.00 49 1022.2
20260906100902 84 154 0.0 7.0 0.00 0.00 0.00 48 1022.2
20260906095902 83 9 2.0 8.0 0.00 0.00 0.00 50 1022.2
20260906095402 83 87 1.0 8.0 0.00 0.00 0.00 49 1022.3
20260906094903 83 92 1.0 9.0 0.00 0.00 0.00 50 1022.3
20260906094404 83 82 2.0 10.0 0.00 0.00 0.00 51 1022.3
20260906093905 83 68 2.0 10.0 0.00 0.00 0.00 51 1022.3
20260906093402 83 11 1.0 8.0 0.00 0.00 0.00 51 1022.4
20260906092403 82 355 1.0 9.0 0.00 0.00 0.00 52 1022.4
20260906090903 82 121 1.0 11.0 0.00 0.00 0.00 52 1022.5
20260906090402 82 46 1.0 8.0 0.00 0.00 0.00 52 1022.5
20260906085404 81 101 2.0 9.0 0.00 0.00 0.00 53 1022.5
20260906084903 81 80 2.0 10.0 0.00 0.00 0.00 53 1022.5
20260906084403 81 123 1.0 10.0 0.00 0.00 0.00 53 1022.5
20260906083903 80 92 0.0 7.0 0.00 0.00 0.00 55 1022.4
20260906083403 80 23 1.0 9.0 0.00 0.00 0.00 55 1022.5
20260906082403 80 90 2.0 12.0 0.00 0.00 0.00 54 1022.4
20260906081903 80 93 2.0 7.0 0.00 0.00 0.00 55 1022.4
20260906081402 80 109 1.0 9.0 0.00 0.00 0.00 56 1022.3
20260906080902 79 316 1.0 11.0 0.00 0.00 0.00 56 1022.3
20260906080404 79 86 2.0 11.0 0.00 0.00 0.00 55 1022.3
20260906075902 79 94 2.0 10.0 0.00 0.00 0.00 55 1022.3
20260906075402 79 28 2.0 10.0 0.00 0.00 0.00 56 1022.3
20260906074902 79 23 3.0 12.0 0.00 0.00 0.00 56 1022.3
20260906074402 79 94 4.0 12.0 0.00 0.00 0.00 56 1022.2
20260906073902 79 120 4.0 15.0 0.00 0.00 0.00 57 1022.2
20260906073402 78 83 4.0 15.0 0.00 0.00 0.00 57 1022.1
20260906072402 78 84 3.0 12.0 0.00 0.00 0.00 58 1022.1
20260906071403 77 301 2.0 11.0 0.00 0.00 0.00 62 1022.0
20260906070902 77 38 2.0 11.0 0.00 0.00 0.00 62 1022.0
20260906065903 76 55 1.0 9.0 0.00 0.00 0.00 65 1021.9
20260906065402 76 336 2.0 9.0 0.00 0.00 0.00 64 1021.9
20260906064902 75 59 2.0 9.0 0.00 0.00 0.00 64 1021.9
20260906064402 75 5 2.0 7.0 0.00 0.00 0.00 65 1021.8
20260906063903 75 85 2.0 9.0 0.00 0.00 0.00 65 1021.6
20260906063403 75 67 1.0 9.0 0.00 0.00 0.00 66 1021.7
20260906062903 74 39 1.0 8.0 0.00 0.00 0.00 66 1021.6
20260906062402 74 12 1.0 5.0 0.00 0.00 0.00 67 1021.6
20260906061902 74 51 1.0 6.0 0.00 0.00 0.00 67 1021.5
20260906061402 74 46 2.0 7.0 0.00 0.00 0.00 68 1021.5
20260906060402 73 70 1.0 8.0 0.00 0.00 0.00 69 1021.5
20260906055902 73 5 2.0 5.0 0.00 0.00 0.00 69 1021.4
20260906055357 73 65 1.0 6.0 0.00 0.00 0.00 69 1021.4
20260906054851 73 19 0.0 6.0 0.00 0.00 0.00 70 1021.3
20260906054345 73 24 0.0 7.0 0.00 0.00 0.00 70 1021.2
20260906053839 72 5 0.0 7.0 0.00 0.00 0.00 70 1021.1
20260906053338 72 0 0.0 4.0 0.00 0.00 0.00 71 1021.0
20260906052839 72 21 0.0 5.0 0.00 0.00 0.00 71 1021.1
20260906051838 72 340 2.0 5.0 0.00 0.00 0.00 71 1020.9
20260906051337 72 42 1.0 5.0 0.00 0.00 0.00 71 1020.9
20260906050835 72 32 1.0 5.0 0.00 0.00 0.00 71 1020.8
20260906045833 72 81 0.0 1.0 0.00 0.00 0.00 71 1020.7
20260906044334 72 23 1.0 7.0 0.00 0.00 0.00 71 1020.6
20260906043831 72 86 1.0 7.0 0.00 0.00 0.00 71 1020.5
20260906042832 72 14 1.0 5.0 0.00 0.00 0.00 70 1020.4
20260906042331 72 32 1.0 4.0 0.00 0.00 0.00 70 1020.3
20260906041831 72 40 1.0 5.0 0.00 0.00 0.00 70 1020.2
20260906041331 72 26 1.0 6.0 0.00 0.00 0.00 70 1020.1
20260906040323 72 29 1.0 10.0 0.00 0.00 0.00 70 1020.1
20260906035817 72 28 0.0 4.0 0.00 0.00 0.00 71 1020.0
20260906035314 72 34 1.0 5.0 0.00 0.00 0.00 71 1020.0
20260906034807 73 35 2.0 7.0 0.00 0.00 0.00 71 1020.0
20260906033305 73 34 1.0 5.0 0.00 0.00 0.00 71 1019.8
20260906032806 73 75 0.0 5.0 0.00 0.00 0.00 71 1019.8
20260906032306 73 30 0.0 2.0 0.00 0.00 0.00 71 1019.9
20260906031805 73 16 0.0 2.0 0.00 0.00 0.00 71 1019.9
20260906031304 73 9 0.0 4.0 0.00 0.00 0.00 71 1019.8
20260906030304 73 37 0.0 4.0 0.00 0.00 0.00 71 1019.8
20260906025805 73 0 0.0 4.0 0.00 0.00 0.00 71 1019.9
20260906025306 73 5 0.0 4.0 0.00 0.00 0.00 71 1020.0
20260906024803 73 0 0.0 4.0 0.00 0.00 0.00 71 1020.0
20260906024303 73 5 0.0 3.0 0.00 0.00 0.00 71 1019.9
20260906023303 74 10 1.0 6.0 0.00 0.00 0.00 72 1019.9
20260906022802 74 15 1.0 6.0 0.00 0.00 0.00 72 1019.9
20260906022306 74 32 1.0 6.0 0.00 0.00 0.00 72 1019.8
20260906021758 74 31 1.0 7.0 0.00 0.00 0.00 72 1019.8
20260906021251 74 11 1.0 7.0 0.00 0.00 0.00 73 1019.7
20260906020745 74 17 2.0 8.0 0.00 0.00 0.00 73 1019.7
20260906020239 74 35 1.0 8.0 0.00 0.00 0.00 74 1019.7
20260906015738 74 5 1.0 5.0 0.00 0.00 0.00 74 1019.7
20260906014739 74 13 0.0 6.0 0.00 0.00 0.00 76 1019.7
20260906014240 74 44 1.0 6.0 0.00 0.00 0.00 76 1019.7
20260906013740 74 57 1.0 6.0 0.00 0.00 0.00 77 1019.6
20260906013239 74 32 1.0 5.0 0.00 0.00 0.00 77 1019.6
20260906012738 74 22 1.0 4.0 0.00 0.00 0.00 78 1019.6
20260906012238 74 31 0.0 6.0 0.00 0.00 0.00 79 1019.6
20260906011735 74 27 0.0 6.0 0.00 0.00 0.00 80 1019.5
20260906011233 74 35 0.0 3.0 0.00 0.00 0.00 80 1019.5
20260906010733 74 42 0.0 5.0 0.00 0.00 0.00 80 1019.5
20260906010238 74 0 1.0 5.0 0.00 0.00 0.00 81 1019.5
20260906005733 74 27 1.0 4.0 0.00 0.00 0.00 81 1019.5
20260906005233 74 0 0.0 3.0 0.00 0.00 0.00 82 1019.5
20260906004731 74 41 0.0 4.0 0.00 0.00 0.00 83 1019.6
20260906004232 74 42 0.0 4.0 0.00 0.00 0.00 83 1019.5
20260906003731 75 36 0.0 0.0 0.00 0.00 0.00 84 1019.5
20260906003231 75 19 0.0 0.0 0.00 0.00 0.00 84 1019.5
20260906002734 75 351 0.0 0.0 0.00 0.00 0.00 84 1019.5
20260906002231 75 355 0.0 0.0 0.00 0.00 0.00 84 1019.6
20260906001731 75 5 0.0 3.0 0.00 0.00 0.00 84 1019.7
20260906001231 75 20 0.0 3.0 0.00 0.00 0.00 84 1019.6
20260906000734 75 33 0.0 3.0 0.00 0.00 0.00 84 1019.6
20260905235731 75 56 0.0 1.0 0.00 0.00 0.00 84 1019.6
20260905235232 76 32 0.0 4.0 0.00 0.00 0.00 84 1019.6
20260905234733 76 47 0.0 4.0 0.00 0.00 0.00 84 1019.5
20260905234230 76 32 1.0 6.0 0.00 0.00 0.00 84 1019.4
20260905233731 76 48 1.0 6.0 0.00 0.00 0.00 84 1019.4
20260905233230 76 17 0.0 4.0 0.00 0.00 0.00 84 1019.4
20260905232731 76 34 1.0 5.0 0.00 0.00 0.00 85 1019.3
20260905232230 76 30 0.0 5.0 0.00 0.00 0.00 86 1019.3
20260905231730 76 44 0.0 2.0 0.00 0.00 0.00 86 1019.3
20260905231230 76 32 0.0 0.0 0.00 0.00 0.00 86 1019.3
20260905230728 76 17 0.0 0.0 0.00 0.00 0.00 86 1019.3
20260905230229 76 13 0.0 0.0 0.00 0.00 0.00 86 1019.3
20260905225729 76 46 0.0 0.0 0.00 0.00 0.00 86 1019.2
20260905225227 76 42 0.0 0.0 0.00 0.00 0.00 86 1019.1
20260905224222 76 42 0.0 0.0 0.00 0.00 0.00 86 1019.1
20260905223722 76 51 0.0 0.0 0.00 0.00 0.00 85 1019.1
20260905223223 76 51 0.0 0.0 0.00 0.00 0.00 85 1019.1
20260905222723 76 51 0.0 0.0 0.00 0.00 0.00 85 1019.1
20260905222223 76 107 0.0 0.0 0.00 0.00 0.00 85 1019.1
20260905221721 77 111 0.0 0.0 0.00 0.00 0.00 84 1019.0
20260905221219 77 182 0.0 0.0 0.00 0.00 0.00 84 1019.0
20260905220716 77 182 0.0 0.0 0.00 0.00 0.00 84 1018.9
20260905220215 77 182 0.0 0.0 0.00 0.00 0.00 84 1018.8
20260905215714 77 182 0.0 0.0 0.00 0.00 0.00 84 1018.7
20260905215215 77 182 0.0 0.0 0.00 0.00 0.00 84 1018.7
20260905214714 77 182 0.0 0.0 0.00 0.00 0.00 84 1018.7
20260905214214 77 182 0.0 0.0 0.00 0.00 0.00 84 1018.6
20260905213714 77 182 0.0 0.0 0.00 0.00 0.00 84 1018.6
20260905213214 77 182 0.0 0.0 0.00 0.00 0.00 83 1018.5
20260905212711 77 182 0.0 0.0 0.00 0.00 0.00 83 1018.4
20260905212211 77 182 0.0 0.0 0.00 0.00 0.00 83 1018.3
20260905211710 77 182 0.0 0.0 0.00 0.00 0.00 83 1018.3
20260905211208 77 182 0.0 0.0 0.00 0.00 0.00 83 1018.2
20260905210706 77 182 0.0 0.0 0.00 0.00 0.00 83 1018.2
20260905205706 78 182 0.0 0.0 0.00 0.00 0.00 82 1018.2
20260905205203 78 182 0.0 0.0 0.00 0.00 0.00 82 1018.3
20260905204703 78 182 0.0 0.0 0.00 0.00 0.00 82 1018.3
20260905204204 78 182 0.0 0.0 0.00 0.00 0.00 81 1018.3
20260905203203 78 182 0.0 0.0 0.00 0.00 0.00 81 1018.3
20260905202703 78 182 0.0 0.0 0.00 0.00 0.00 81 1018.4
20260905201702 78 182 0.0 0.0 0.00 0.00 0.00 80 1018.3
20260905201202 79 182 0.0 0.0 0.00 0.00 0.00 80 1018.2
20260905200703 79 182 0.0 2.0 0.00 0.00 0.00 80 1018.2
20260905200204 79 183 0.0 2.0 0.00 0.00 0.00 80 1018.1
20260905195703 79 183 0.0 2.0 0.00 0.00 0.00 79 1018.1
20260905195203 79 178 0.0 1.0 0.00 0.00 0.00 79 1018.0
20260905194702 79 174 0.0 0.0 0.00 0.00 0.00 79 1017.9
20260905193702 80 164 0.0 0.0 0.00 0.00 0.00 78 1017.7
20260905193203 80 163 0.0 0.0 0.00 0.00 0.00 78 1017.6
20260905192702 80 167 0.0 0.0 0.00 0.00 0.00 78 1017.6
20260905192203 80 167 0.0 0.0 0.00 0.00 0.00 77 1017.5
20260905191701 80 167 0.0 0.0 0.00 0.00 0.00 77 1017.5
20260905191155 80 167 0.0 4.0 0.00 0.00 0.00 77 1017.3
20260905190649 80 167 0.0 4.0 0.00 0.00 0.00 77 1017.2
20260905190143 80 154 0.0 3.0 0.00 0.00 0.00 77 1017.1
20260905185637 81 146 0.0 2.0 0.00 0.00 0.00 77 1017.1
20260905185135 81 138 1.0 3.0 0.00 0.00 0.00 77 1017.1
20260905184633 81 136 1.0 3.0 0.00 0.00 0.00 77 1017.0
20260905184135 81 171 1.0 3.0 0.00 0.00 0.00 76 1016.9
20260905183134 81 119 0.0 0.0 0.00 0.00 0.00 76 1016.6
20260905182631 82 130 0.0 0.0 0.00 0.00 0.00 75 1016.6
20260905182131 82 150 0.0 0.0 0.00 0.00 0.00 74 1016.5
20260905181631 82 107 0.0 3.0 0.00 0.00 0.00 73 1016.4
20260905181130 82 121 0.0 3.0 0.00 0.00 0.00 72 1016.3
20260905180131 83 105 0.0 1.0 0.00 0.00 0.00 71 1016.3
20260905175627 83 137 0.0 3.0 0.00 0.00 0.00 70 1016.2
20260905175127 83 117 0.0 3.0 0.00 0.00 0.00 69 1016.1
20260905174122 84 123 0.0 7.0 0.00 0.00 0.00 68 1016.0
20260905173619 85 175 1.0 7.0 0.00 0.00 0.00 67 1016.0
20260905173120 85 96 0.0 4.0 0.00 0.00 0.00 66 1016.0
20260905172619 86 164 0.0 3.0 0.00 0.00 0.00 65 1015.9
20260905172117 86 117 1.0 4.0 0.00 0.00 0.00 65 1015.8
20260905171617 86 139 0.0 4.0 0.00 0.00 0.00 64 1015.8
20260905170617 87 155 0.0 5.0 0.00 0.00 0.00 63 1015.8
20260905170114 88 119 1.0 5.0 0.00 0.00 0.00 62 1015.7
20260905165614 88 138 1.0 4.0 0.00 0.00 0.00 61 1015.6